Regional Weather Roundup
Issued by NWS

Home | Current Version | Previous Version | Text Only | Print | Product List | Glossary Off
Versions: 1 2 3 4 5 6 7 8 9 10 11 12 13 14 15 16 17 18 19 20 21 22 23 24 25 26 27 28 29 30 31 32 33 34 35 36 37 38 39 40 41 42 43 44 45 46 47 48 49 50

000
ASUS43 KDMX 282008
RWRIA

WEATHER ROUNDUP FOR IOWA
NATIONAL WEATHER SERVICE DES MOINES IA
300 PM CDT WED SEP 28 2016

NOTE: "FAIR" INDICATES FEW OR NO CLOUDS BELOW 12,000 FEET WITH NO
SIGNIFICANT WEATHER AND/OR OBSTRUCTIONS TO VISIBILITY.

* - THESE STATIONS ARE NOT NWS STATIONS...THUS NOT UNDER NWS
QUALITY CONTROL.  THEY ALSO DO NOT REPORT WEATHER SUCH
AS PRECIPITATION OR FOG.

IAZ001>003-012>014-020>022-031>034-043>046-282100-
   NORTHWEST IOWA

CITY           SKY/WX    TMP DP  RH WIND       PRES   REMARKS
CARROLL *      PTSUNNY   64  46  52 N20       30.17S
CHEROKEE *     CLOUDY    60  48  64 N15       30.22S
DENISON *      MOSUNNY   61  48  63 N13       30.19R
LE MARS *      MOSUNNY   61  46  59 N10       30.25S
ORANGE CITY *  PTSUNNY   57  46  67 N7        30.25S
SHELDON *      CLOUDY    61  46  59 N8G15     30.23S
SIOUX CITY     MOSUNNY   65  48  54 N12       30.23S
SPENCER        PTSUNNY   62  48  60 N16G22    30.22R
STORM LAKE *   SUNNY     61  46  59 N12G18    30.21R
$$

IAZ055>058-069>071-079>083-090>094-282100-
   SOUTHWEST IOWA

CITY           SKY/WX    TMP DP  RH WIND       PRES   REMARKS
ATLANTIC *     MOSUNNY   63  46  55 N10G22    30.18R
AUDUBON *      MOSUNNY   63  48  59 N12G17    30.19R
CLARINDA *       N/A     64  46  52 MISG      30.19R
COUNCIL BLFS * SUNNY     63  46  55 N10G17    30.20R
CRESTON *      PTSUNNY   63  46  55 N16       30.17S
HARLAN  *      MOSUNNY   61  46  59 N8G17     30.23S
LAMONI         CLOUDY    61  48  62 N13       30.15R
RED OAK *      SUNNY     64  48  55 N9G17     30.18F
SHENANDOAH *   MOSUNNY   64  46  52 N12G20    30.19S
$$

IAZ047>049-059>061-072>074-084-282100-
   CENTRAL IOWA

CITY           SKY/WX    TMP DP  RH WIND       PRES   REMARKS
AMES           CLOUDY    59  51  75 N15G22    30.16R
ANKENY *         N/A    N/A N/A N/A MISG        N/A
BOONE *        CLOUDY    59  48  67 N15       30.16R
CHARITON *       N/A     59  48  67 N15G26    30.13R
DES MOINES     CLOUDY    59  48  67 NW14      30.16R
GRINNELL*      CLOUDY    61  47  58 N13G20    30.12R
KNOXVILLE *    CLOUDY    61  48  63 NW13G20   30.11S
MARSHALLTOWN   CLOUDY    61  49  64 N17G23    30.13R
NEWTON *       CLOUDY    61  48  63 N16       30.12R
PELLA *        CLOUDY    61  46  58 N9G17     30.13S
PERRY *        CLOUDY    62  49  64 N14G24    30.18R
$$

IAZ004>006-015-016-023>025-035-036-282100-
   NORTH CENTRAL IOWA

CITY           SKY/WX    TMP DP  RH WIND       PRES   REMARKS
ALGONA *       CLOUDY    59  46  63 N14G23    30.20S
CLARION *      CLOUDY    59  48  67 N12G21    30.17S
ESTHERVILLE    CLOUDY    59  48  67 N17       30.22R
FORT DODGE *   CLOUDY    57  46  67 N9        30.20R
MASON CITY     CLOUDY    60  48  64 N15G23    30.18R
FOREST CITY *  CLOUDY    59  46  63 N16       30.18R
WEBSTER CITY * CLOUDY    59  48  67 N16G24    30.15S
IOWA FALLS *   CLOUDY    61  48  62 N13G20    30.15R
$$

IAZ007>011-017>019-026>030-037>042-050>054-066-282100-
   NORTHEAST IOWA

CITY           SKY/WX    TMP DP  RH WIND       PRES   REMARKS
CEDAR RAPIDS   CLOUDY    61  49  64 N16G24    30.08R
CHARLES CITY * CLOUDY    61  48  63 N16       30.14R
CLINTON *      CLOUDY    63  49  60 N20       30.04R
DECORAH *      CLOUDY    61  50  67 N14G20    30.10R
DUBUQUE        CLOUDY    59  49  69 N14       30.07R
MONTICELLO *   CLOUDY    64  48  55 N14G23    30.07R
OELWEIN *      PTSUNNY   61  48  63 N18G24    30.11R
WATERLOO       CLOUDY    60  49  66 N18       30.11R
$$

IAZ064-065-067-068-078-282100-
   EAST CENTRAL IOWA

CITY           SKY/WX    TMP DP  RH WIND       PRES   REMARKS
DAVENPORT      CLOUDY    63  47  55 N17       30.04R
IOWA CITY      CLOUDY    63  49  60 N9        30.08R
MT. PLEASANT * CLOUDY    64  49  58 N17G24    30.07R
MUSCATINE *    CLOUDY    64  46  52 N14G20    30.05R
QUAD CITIES    CLOUDY    64  47  53 N15G23    30.02S
$$

IAZ062-063-075>077-085>089-095>099-282100-
   SOUTHEAST IOWA

CITY           SKY/WX    TMP DP  RH WIND       PRES   REMARKS
BURLINGTON     CLOUDY    61  48  62 N15       30.05R
FAIRFIELD *    CLOUDY    61  46  59 NW14      30.08R
FORT MADISON * CLOUDY    61  48  63 N13       30.07R
KEOKUK *       CLOUDY    61  46  59 N8G18     30.06R
OSKALOOSA *    CLOUDY    62  46  55 N14G20    30.10S
OTTUMWA        CLOUDY    62  46  55 N16       30.10R
WASHINGTON *     N/A    N/A N/A N/A MISG        N/A
$$

ABBREVIATIONS USED IN REMARKS
   TC - TEMPERATURES IN CELSIUS
  WCI - WIND CHILL INDEX
   HX - HEAT INDEX
  VSB - VISIBILITY
$$




USA.gov is the U.S. government's official web portal to all federal, state and local government web resources and services.